| time (UTC) | temp F | wind direction | speed MPH | gust MPH | rain 1hr in | rain 24hr in | rain mn in | humidity % | barometer mb |
| 20260506151530 | 60 | 210 | 12.0 | 18.0 | 0.05 | 0.07 | 0.07 | 92 | 1010.1 |
| 20260506150032 | 60 | 210 | 5.0 | 15.0 | 0.06 | 0.07 | 0.07 | 92 | 1009.8 |
| 20260506144527 | 60 | 212 | 3.0 | 16.0 | 0.05 | 0.05 | 0.05 | 91 | 1009.7 |
| 20260506143028 | 61 | 201 | 7.0 | 22.0 | 0.03 | 0.03 | 0.03 | 89 | 1010.0 |
| 20260506141522 | 61 | 214 | 5.0 | 19.0 | 0.02 | 0.02 | 0.02 | 89 | 1010.1 |
| 20260506140023 | 62 | 205 | 8.0 | 24.0 | 0.01 | 0.01 | 0.01 | 87 | 1009.9 |
| 20260506134517 | 63 | 193 | 11.0 | 22.0 | 0.00 | 0.00 | 0.00 | 83 | 1009.8 |
| 20260506133015 | 63 | 215 | 8.0 | 20.0 | 0.00 | 0.00 | 0.00 | 83 | 1009.7 |
| 20260506131521 | 63 | 191 | 9.0 | 20.0 | 0.00 | 0.00 | 0.00 | 84 | 1009.7 |
| 20260506130012 | 63 | 214 | 15.0 | 24.0 | 0.00 | 0.00 | 0.00 | 83 | 1009.9 |
| 20260506124509 | 63 | 211 | 9.0 | 26.0 | 0.00 | 0.00 | 0.00 | 82 | 1010.0 |
| 20260506123008 | 63 | 231 | 13.0 | 28.0 | 0.00 | 0.00 | 0.00 | 82 | 1010.1 |
| 20260506121505 | 64 | 212 | 15.0 | 28.0 | 0.00 | 0.00 | 0.00 | 81 | 1010.0 |
| 20260506120013 | 64 | 209 | 15.0 | 27.0 | 0.00 | 0.00 | 0.00 | 82 | 1009.7 |
| 20260506114508 | 64 | 217 | 15.0 | 27.0 | 0.00 | 0.00 | 0.00 | 81 | 1009.6 |
| 20260506113104 | 64 | 183 | 12.0 | 26.0 | 0.00 | 0.00 | 0.00 | 82 | 1009.5 |
| 20260506111600 | 63 | 216 | 5.0 | 23.0 | 0.00 | 0.00 | 0.00 | 82 | 1009.5 |
| 20260506110106 | 63 | 207 | 12.0 | 24.0 | 0.00 | 0.00 | 0.00 | 82 | 1009.5 |
| 20260506104601 | 63 | 210 | 12.0 | 25.0 | 0.00 | 0.00 | 0.00 | 82 | 1009.3 |
| 20260506103057 | 63 | 195 | 11.0 | 22.0 | 0.00 | 0.00 | 0.00 | 83 | 1009.3 |
| 20260506101554 | 63 | 213 | 9.0 | 25.0 | 0.00 | 0.00 | 0.00 | 83 | 1009.3 |
| 20260506100053 | 63 | 208 | 13.0 | 29.0 | 0.00 | 0.00 | 0.00 | 82 | 1009.2 |
| 20260506094551 | 63 | 218 | 5.0 | 24.0 | 0.00 | 0.00 | 0.00 | 82 | 1009.2 |
| 20260506093048 | 63 | 229 | 11.0 | 22.0 | 0.00 | 0.00 | 0.00 | 82 | 1009.3 |
| 20260506091552 | 63 | 191 | 12.0 | 22.0 | 0.00 | 0.00 | 0.00 | 81 | 1009.4 |
| 20260506090042 | 64 | 207 | 10.0 | 26.0 | 0.00 | 0.00 | 0.00 | 81 | 1009.3 |
| 20260506084545 | 64 | 212 | 11.0 | 25.0 | 0.00 | 0.00 | 0.00 | 80 | 1009.3 |
| 20260506083036 | 65 | 211 | 12.0 | 25.0 | 0.00 | 0.00 | 0.00 | 79 | 1009.3 |
| 20260506081533 | 65 | 218 | 9.0 | 20.0 | 0.00 | 0.00 | 0.00 | 79 | 1009.4 |
| 20260506073026 | 65 | 235 | 9.0 | 23.0 | 0.00 | 0.00 | 0.00 | 78 | 1009.6 |
| 20260506071525 | 65 | 211 | 9.0 | 19.0 | 0.00 | 0.00 | 0.00 | 77 | 1009.7 |
| 20260506061513 | 65 | 216 | 2.0 | 17.0 | 0.00 | 0.00 | 0.00 | 75 | 1010.1 |
| 20260506044506 | 66 | 210 | 0.0 | 5.0 | 0.00 | 0.00 | 0.00 | 71 | 1010.6 |
| 20260506043003 | 66 | 208 | 0.0 | 6.0 | 0.00 | 0.00 | 0.00 | 70 | 1010.7 |
| 20260506041501 | 66 | 212 | 2.0 | 12.0 | 0.00 | 0.00 | 0.00 | 69 | 1010.7 |
| 20260506040100 | 66 | 180 | 2.0 | 11.0 | 0.00 | 0.00 | 0.00 | 69 | 1010.7 |
| 20260506034615 | 66 | 220 | 0.0 | 11.0 | 0.00 | 0.00 | 0.00 | 69 | 1010.7 |
| 20260506033058 | 66 | 217 | 0.0 | 9.0 | 0.00 | 0.00 | 0.00 | 68 | 1010.6 |
| 20260506031607 | 66 | 218 | 0.0 | 9.0 | 0.00 | 0.00 | 0.00 | 68 | 1010.5 |
| 20260506030057 | 66 | 223 | 1.0 | 10.0 | 0.00 | 0.00 | 0.00 | 69 | 1010.6 |
| 20260506024616 | 66 | 214 | 1.0 | 10.0 | 0.00 | 0.00 | 0.00 | 69 | 1010.6 |
| 20260506023057 | 66 | 181 | 0.0 | 4.0 | 0.00 | 0.00 | 0.00 | 67 | 1010.8 |
| 20260506021558 | 67 | 189 | 0.0 | 10.0 | 0.00 | 0.00 | 0.00 | 66 | 1010.8 |
| 20260506020058 | 67 | 206 | 1.0 | 9.0 | 0.00 | 0.00 | 0.00 | 65 | 1010.7 |
| 20260506014555 | 68 | 200 | 0.0 | 8.0 | 0.00 | 0.00 | 0.00 | 64 | 1010.6 |
| 20260506013107 | 68 | 201 | 0.0 | 14.0 | 0.00 | 0.00 | 0.00 | 63 | 1010.3 |
| 20260506011606 | 69 | 204 | 0.0 | 4.0 | 0.00 | 0.00 | 0.00 | 62 | 1010.1 |
| 20260506010056 | 70 | 210 | 1.0 | 6.0 | 0.00 | 0.00 | 0.00 | 60 | 1010.0 |
| 20260506004554 | 70 | 203 | 0.0 | 4.0 | 0.00 | 0.00 | 0.00 | 59 | 1009.9 |
| 20260506003052 | 71 | 210 | 0.0 | 12.0 | 0.00 | 0.00 | 0.00 | 57 | 1009.7 |
| 20260506001551 | 72 | 203 | 0.0 | 3.0 | 0.00 | 0.00 | 0.00 | 55 | 1009.6 |
| 20260506000052 | 72 | 209 | 0.0 | 14.0 | 0.00 | 0.00 | 0.00 | 54 | 1009.4 |
| 20260505234551 | 73 | 209 | 2.0 | 13.0 | 0.00 | 0.00 | 0.00 | 52 | 1009.2 |
| 20260505233050 | 74 | 212 | 7.0 | 18.0 | 0.00 | 0.00 | 0.00 | 50 | 1009.1 |
| 20260505231550 | 75 | 208 | 7.0 | 20.0 | 0.00 | 0.00 | 0.00 | 49 | 1009.3 |
| 20260505230101 | 76 | 208 | 4.0 | 24.0 | 0.00 | 0.00 | 0.00 | 48 | 1009.2 |
| 20260505224549 | 76 | 213 | 7.0 | 28.0 | 0.00 | 0.00 | 0.00 | 47 | 1009.2 |
| 20260505223056 | 77 | 155 | 4.0 | 22.0 | 0.00 | 0.00 | 0.00 | 47 | 1009.2 |
| 20260505221548 | 78 | 220 | 12.0 | 29.0 | 0.00 | 0.00 | 0.00 | 45 | 1009.3 |
| 20260505220047 | 79 | 210 | 13.0 | 28.0 | 0.00 | 0.00 | 0.00 | 45 | 1009.1 |
| 20260505214547 | 78 | 189 | 12.0 | 25.0 | 0.00 | 0.00 | 0.00 | 46 | 1009.2 |
| 20260505213055 | 79 | 199 | 12.0 | 30.0 | 0.00 | 0.00 | 0.00 | 45 | 1009.1 |
| 20260505211545 | 80 | 196 | 14.0 | 26.0 | 0.00 | 0.00 | 0.00 | 45 | 1009.2 |
| 20260505210045 | 79 | 199 | 11.0 | 27.0 | 0.00 | 0.00 | 0.00 | 47 | 1009.1 |
| 20260505204545 | 79 | 202 | 11.0 | 32.0 | 0.00 | 0.00 | 0.00 | 45 | 1009.1 |
| 20260505203050 | 80 | 235 | 17.0 | 29.0 | 0.00 | 0.00 | 0.00 | 46 | 1009.3 |
| 20260505201546 | 79 | 201 | 9.0 | 28.0 | 0.00 | 0.00 | 0.00 | 47 | 1009.3 |
| 20260505200041 | 80 | 212 | 14.0 | 30.0 | 0.00 | 0.00 | 0.00 | 46 | 1009.4 |
| 20260505194543 | 80 | 190 | 8.0 | 25.0 | 0.00 | 0.00 | 0.00 | 46 | 1009.4 |
| 20260505193038 | 80 | 238 | 6.0 | 20.0 | 0.00 | 0.00 | 0.00 | 46 | 1009.6 |
| 20260505191537 | 80 | 279 | 11.0 | 25.0 | 0.00 | 0.00 | 0.00 | 47 | 1009.8 |
| 20260505190034 | 80 | 218 | 3.0 | 25.0 | 0.00 | 0.00 | 0.00 | 48 | 1010.0 |
| 20260505184533 | 80 | 218 | 12.0 | 33.0 | 0.00 | 0.00 | 0.00 | 46 | 1010.1 |
| 20260505183032 | 80 | 185 | 9.0 | 26.0 | 0.00 | 0.00 | 0.00 | 45 | 1010.3 |
| 20260505181530 | 80 | 199 | 12.0 | 25.0 | 0.00 | 0.00 | 0.00 | 47 | 1010.4 |
| 20260505180028 | 80 | 193 | 2.0 | 13.0 | 0.00 | 0.00 | 0.00 | 48 | 1010.6 |
| 20260505174525 | 80 | 165 | 4.0 | 18.0 | 0.00 | 0.00 | 0.00 | 52 | 1010.8 |
| 20260505173037 | 79 | 143 | 5.0 | 24.0 | 0.00 | 0.00 | 0.00 | 49 | 1010.9 |
| 20260505171520 | 78 | 172 | 3.0 | 17.0 | 0.00 | 0.00 | 0.00 | 54 | 1011.0 |
| 20260505170023 | 78 | 201 | 3.0 | 16.0 | 0.00 | 0.00 | 0.00 | 55 | 1011.3 |
| 20260505164535 | 77 | 189 | 1.0 | 19.0 | 0.00 | 0.00 | 0.00 | 53 | 1011.4 |
| 20260505163014 | 76 | 191 | 7.0 | 21.0 | 0.00 | 0.00 | 0.00 | 53 | 1011.5 |
| 20260505161511 | 76 | 229 | 5.0 | 16.0 | 0.00 | 0.00 | 0.00 | 55 | 1011.5 |
| 20260505153011 | 75 | 185 | 0.0 | 8.0 | 0.00 | 0.00 | 0.00 | 59 | 1011.7 |